This is the latest recevied weather packets stored in our database for station/object KL1IO. If no packets are shown the sender has not sent any weather packets the latest 1 day(s).
| Time | Temp. | Humidity | Pressure | Rain* | Wind** | Luminosity | Snow |
|---|---|---|---|---|---|---|---|
| 1778003505 | 5° C | 99% | 1010.7 hPa | 0 mm | 0 m/s | 145 W/m² | - |
| 1778003202 | 4.44° C | 99% | 1010.8 hPa | 0 mm | 0 m/s | 132 W/m² | - |
| 1778002898 | 5° C | 99% | 1010.6 hPa | 0 mm | 0 m/s | 142 W/m² | - |
| 1778002595 | 5° C | 99% | 1010.7 hPa | 0 mm | 0 m/s | 147 W/m² | - |
| 1778002292 | 5° C | 99% | 1010.6 hPa | 0 mm | 0 m/s | 138 W/m² | - |
| 1778001989 | 4.44° C | 99% | 1010.8 hPa | 0 mm | 0 m/s | 138 W/m² | - |
| 1778001686 | 3.89° C | 99% | 1010.6 hPa | 0 mm | 0 m/s | 138 W/m² | - |
| 1778001380 | 3.89° C | 99% | 1010.7 hPa | 0 mm | 0 m/s | 129 W/m² | - |
| 1778001078 | 3.89° C | 99% | 1010.5 hPa | 0 mm | 0 m/s | 167 W/m² | - |
| 1778000775 | 3.89° C | 99% | 1010.5 hPa | 0 mm | 0 m/s | 166 W/m² | - |
| 1778000471 | 3.89° C | 99% | 1010.5 hPa | 0 mm | 0 m/s | 165 W/m² | - |
| 1778000166 | 3.89° C | 99% | 1010.4 hPa | 0 mm | 0 m/s | 142 W/m² | - |
| 1777999862 | 3.89° C | 99% | 1010.4 hPa | 0 mm | 0 m/s | 125 W/m² | - |
| 1777999553 | 3.89° C | 99% | 1010.5 hPa | 0 mm | 0 m/s | 89 W/m² | - |
| 1777999250 | 3.89° C | 99% | 1010.5 hPa | 0 mm | 0 m/s | 82 W/m² | - |
| 1777998948 | 3.89° C | 99% | 1010.7 hPa | 0 mm | 0 m/s | 66 W/m² | - |
| 1777998645 | 3.89° C | 99% | 1010.7 hPa | 0 mm | 0.89 m/s, 122° | 67 W/m² | - |
| 1777998338 | 3.89° C | 99% | 1010.4 hPa | 0 mm | 0.45 m/s, 181° | 64 W/m² | - |
| 1777998036 | 3.33° C | 99% | 1010.4 hPa | 0 mm | 0.45 m/s, 140° | 55 W/m² | - |
| 1777997732 | 3.33° C | 99% | 1010.3 hPa | 0 mm | 0 m/s | 61 W/m² | - |
| 1777997430 | 3.33° C | 99% | 1010.3 hPa | 0 mm | 0 m/s | 60 W/m² | - |
| 1777997127 | 3.33° C | 99% | 1010.4 hPa | 1.78 mm | 0 m/s | 52 W/m² | - |
| 1777996824 | 3.33° C | 99% | 1010.4 hPa | 1.78 mm | 0 m/s | 43 W/m² | - |
| 1777996520 | 3.33° C | 99% | 1010.4 hPa | 0 mm | 0 m/s | 37 W/m² | - |
| 1777996217 | 3.33° C | 99% | 1010.3 hPa | 0 mm | 0 m/s | 30 W/m² | - |
* Rain latest hour (hover to see other rain measurements)
** Current wind speed in m/s (hover to see current wind gust speed)